User: anonymous   Login
Location: Caltech
(34.1382°N, 118.1253°W)
Time: 16:29:27
(UTC-08:00)
Language:

Cosmos 1025 Rocket - Orbit

View from above orbital plane
View from above orbital plane
View from above satellite
View from above satellite

Ground track
Ground track

The orbit data is extracted from the following two-line orbital elements,

1 10974U 78067B   14328.14339677  .00000575  00000-0  61802-4 0  4697
2 10974 082.4814 335.4907 0017466 199.2632 227.6924 14.86750390968465
Epoch (UTC): 24 November 2014 03:26:29
Eccentricity: 0.0017466
inclination: 82.4814°
perigee height: 596 km
apogee height: 620 km
right ascension of ascending node: 335.4907°
argument of perigee: 199.2632°
revolutions per day: 14.86750390
mean anomaly at epoch: 227.6924°
orbit number at epoch: 96846

The dashed part of the orbit path shows where the satellite is in the earth's shadow,  

DLR